St. James, MN

10:07 PM CDT on April 19, 2018 (GMT -0500)
Saint James Municipal

Weather History for KJYG - October, 2012

Change the Weather History Date:

Thursday, October 4, 2012

  Actual Average Record
Temperature  
Mean Temperature 50 °F -  
Max Temperature 62 °F 67 °F 87 °F (2011)
Min Temperature 39 °F 41 °F 25 °F (1989)
Degree Days  
Heating Degree Days 14    
Moisture  
Dew Point 30 °F    
Average Humidity 54    
Maximum Humidity 71    
Minimum Humidity 27    
Precipitation  
Precipitation 0.00 in - - ()
Sea Level Pressure  
Sea Level Pressure 30.07 in    
Wind  
Wind Speed 19 mph (West)    
Max Wind Speed 29 mph    
Max Gust Speed 41 mph    
Visibility 10 miles    
Events      
Averages and records for this station are not official NWS values.
T = Trace of Precipitation, MM = Missing Value Source: NWS Daily Summary

Daily Weather History Graph

Daily Weather History Graph

Search for Another Location

Airport or City:

Astronomy

Oct. 04, 2012 Rise Set
Actual Time 7:20 AM CDT 6:52 PM CDT
Civil Twilight 6:51 AM CDT 7:21 PM CDT
Nautical Twilight 6:17 AM CDT 7:54 PM CDT
Astronomical Twilight 5:44 AM CDT 8:28 PM CDT
Moon 9:19 PM CDT (10/4) 11:47 AM CDT (10/4)
Length of Visible Light 12h 30m
Length of Day
11h 32m
Waning Gibbous, 82% of the Moon is Illuminated
Oct 4
Waning Gibbous
Oct 8
Last Quarter
Oct 15
New
Oct 21
First Quarter
Oct 29
Full

Hourly Weather History & Observations

Time (CDT) Temp. Windchill Dew Point Humidity Pressure Visibility Wind Dir Wind Speed Gust Speed Precip Events Conditions
12:15 AM 60.8 °F - 28.4 °F 29% 29.79 in 10.0 mi SE 6.9 mph - N/A   Clear
12:34 AM 62.6 °F - 28.4 °F 27% 29.80 in 10.0 mi SSE 13.8 mph 20.7 mph N/A   Clear
12:55 AM 60.8 °F - 28.4 °F 29% 29.81 in 10.0 mi South 11.5 mph - N/A   Clear
1:15 AM 60.8 °F - 30.2 °F 31% 29.82 in 10.0 mi SSW 15.0 mph 26.5 mph N/A   Clear
1:35 AM 55.4 °F - 35.6 °F 47% 29.84 in 7.0 mi WSW 19.6 mph 31.1 mph N/A   Clear
1:54 AM 53.6 °F - 37.4 °F 54% 29.86 in 10.0 mi WSW 25.3 mph 29.9 mph N/A   Clear
2:15 AM 51.8 °F - 39.2 °F 62% 29.88 in 10.0 mi WSW 19.6 mph 26.5 mph N/A   Clear
2:35 AM 50.0 °F - 39.2 °F 66% 29.88 in 10.0 mi WSW 17.3 mph 25.3 mph N/A   Clear
2:55 AM 50.0 °F - 39.2 °F 66% 29.89 in 10.0 mi WSW 16.1 mph 24.2 mph N/A   Scattered Clouds
3:15 AM 50.0 °F - 39.2 °F 66% 29.89 in 10.0 mi WSW 13.8 mph 25.3 mph N/A   Overcast
3:35 AM 50.0 °F - 39.2 °F 66% 29.90 in 10.0 mi West 21.9 mph 33.4 mph N/A   Overcast
3:55 AM 48.2 °F - 37.4 °F 66% 29.91 in 10.0 mi West 20.7 mph 34.5 mph N/A   Overcast
4:15 AM 46.4 °F 38.1 °F 37.4 °F 71% 29.93 in 10.0 mi West 24.2 mph 31.1 mph N/A   Mostly Cloudy
4:35 AM 46.4 °F 38.1 °F 37.4 °F 71% 29.92 in 10.0 mi West 24.2 mph 32.2 mph N/A   Mostly Cloudy
4:55 AM 46.4 °F 37.7 °F 37.4 °F 71% 29.93 in 10.0 mi West 26.5 mph 33.4 mph N/A   Overcast
5:14 AM 46.4 °F 38.1 °F 37.4 °F 71% 29.94 in 10.0 mi West 24.2 mph 33.4 mph N/A   Overcast
5:35 AM 46.4 °F 37.7 °F 37.4 °F 71% 29.96 in 10.0 mi West 26.5 mph 36.8 mph N/A   Overcast
5:55 AM 46.4 °F 39.5 °F 35.6 °F 66% 29.98 in 10.0 mi West 17.3 mph 33.4 mph N/A   Overcast
6:14 AM 44.6 °F 35.5 °F 35.6 °F 71% 29.98 in 10.0 mi West 25.3 mph 31.1 mph N/A   Overcast
6:35 AM 44.6 °F 36.9 °F 35.6 °F 71% 30.00 in 10.0 mi West 18.4 mph 23.0 mph N/A   Overcast
6:54 AM 42.8 °F 34.3 °F 33.8 °F 70% 30.01 in 10.0 mi West 19.6 mph 27.6 mph N/A   Mostly Cloudy
7:15 AM 41.0 °F 33.1 °F 32.0 °F 70% 30.02 in 10.0 mi West 15.0 mph - N/A   Clear
7:35 AM 41.0 °F 32.2 °F 32.0 °F 70% 30.02 in 10.0 mi West 18.4 mph 24.2 mph N/A   Clear
7:55 AM 39.2 °F 29.0 °F 30.2 °F 70% 30.03 in 10.0 mi West 21.9 mph 26.5 mph N/A   Clear
8:15 AM 41.0 °F 31.4 °F 30.2 °F 65% 30.05 in 10.0 mi West 21.9 mph 26.5 mph N/A   Mostly Cloudy
8:35 AM 42.8 °F 33.5 °F 32.0 °F 66% 30.05 in 10.0 mi West 23.0 mph 31.1 mph N/A   Overcast
8:55 AM 42.8 °F 33.5 °F 32.0 °F 66% 30.06 in 10.0 mi West 23.0 mph 29.9 mph N/A   Overcast
9:15 AM 42.8 °F 34.3 °F 32.0 °F 66% 30.06 in 10.0 mi WNW 19.6 mph - N/A   Overcast
9:35 AM 42.8 °F 33.3 °F 32.0 °F 66% 30.07 in 10.0 mi West 24.2 mph 29.9 mph N/A   Overcast
9:55 AM 42.8 °F 32.5 °F 30.2 °F 61% 30.07 in 10.0 mi West 28.8 mph 34.5 mph N/A   Overcast
10:15 AM 44.6 °F 35.3 °F 30.2 °F 57% 30.08 in 10.0 mi West 26.5 mph 33.4 mph N/A   Overcast
10:35 AM 44.6 °F 35.9 °F 30.2 °F 57% 30.08 in 10.0 mi WNW 23.0 mph 35.7 mph N/A   Mostly Cloudy
10:55 AM 44.6 °F 35.5 °F 30.2 °F 57% 30.09 in 10.0 mi WNW 25.3 mph 41.4 mph N/A   Mostly Cloudy
11:15 AM 46.4 °F 37.5 °F 30.2 °F 53% 30.10 in 10.0 mi WNW 27.6 mph 41.4 mph N/A   Mostly Cloudy
11:35 AM 46.4 °F 38.1 °F 30.2 °F 53% 30.10 in 10.0 mi WNW 24.2 mph 40.3 mph N/A   Mostly Cloudy
11:55 AM 46.4 °F 37.4 °F 28.4 °F 50% 30.10 in 10.0 mi WNW 28.8 mph 40.3 mph N/A   Mostly Cloudy
12:15 PM 46.4 °F 38.5 °F 28.4 °F 50% 30.12 in 10.0 mi West 21.9 mph 38.0 mph N/A   Scattered Clouds
12:35 PM 46.4 °F 38.1 °F 28.4 °F 50% 30.13 in 10.0 mi West 24.2 mph 36.8 mph N/A   Mostly Cloudy
12:55 PM 48.2 °F - 28.4 °F 46% 30.14 in 10.0 mi WNW 25.3 mph 36.8 mph N/A   Scattered Clouds
1:35 PM 48.2 °F - 28.4 °F 46% 30.14 in 10.0 mi West 25.3 mph 36.8 mph N/A   Scattered Clouds
1:54 PM 48.2 °F - 28.4 °F 46% 30.14 in 10.0 mi West 27.6 mph 34.5 mph N/A   Scattered Clouds
2:15 PM 50.0 °F - 26.6 °F 40% 30.14 in 10.0 mi WNW 26.5 mph 33.4 mph N/A   Scattered Clouds
2:34 PM 50.0 °F - 26.6 °F 40% 30.14 in 10.0 mi West 28.8 mph 34.5 mph N/A   Scattered Clouds
2:55 PM 51.8 °F - 26.6 °F 38% 30.15 in 10.0 mi WNW 23.0 mph 31.1 mph N/A   Mostly Cloudy
3:15 PM 50.0 °F - 26.6 °F 40% 30.15 in 10.0 mi West 28.8 mph 36.8 mph N/A   Mostly Cloudy
3:35 PM 50.0 °F - 26.6 °F 40% 30.16 in 10.0 mi WNW 27.6 mph 34.5 mph N/A   Scattered Clouds
3:55 PM 50.0 °F - 26.6 °F 40% 30.16 in 10.0 mi WNW 26.5 mph 34.5 mph N/A   Scattered Clouds
4:15 PM 48.2 °F - 26.6 °F 43% 30.17 in 10.0 mi WNW 23.0 mph 34.5 mph N/A   Scattered Clouds
4:35 PM 48.2 °F - 26.6 °F 43% 30.17 in 10.0 mi WNW 24.2 mph 33.4 mph N/A   Mostly Cloudy
4:55 PM 48.2 °F - 26.6 °F 43% 30.18 in 10.0 mi WNW 23.0 mph 31.1 mph N/A   Overcast
5:15 PM 48.2 °F - 26.6 °F 43% 30.19 in 10.0 mi WNW 25.3 mph 32.2 mph N/A   Overcast
5:35 PM 46.4 °F 38.3 °F 26.6 °F 46% 30.19 in 10.0 mi West 23.0 mph 32.2 mph N/A   Overcast
5:54 PM 46.4 °F 38.1 °F 26.6 °F 46% 30.20 in 10.0 mi WNW 24.2 mph 31.1 mph N/A   Overcast
6:15 PM 46.4 °F 39.5 °F 24.8 °F 43% 30.20 in 10.0 mi WNW 17.3 mph 28.8 mph N/A   Mostly Cloudy
6:35 PM 46.4 °F 38.7 °F 26.6 °F 46% 30.20 in 10.0 mi West 20.7 mph 25.3 mph N/A   Overcast
6:55 PM 44.6 °F 36.1 °F 26.6 °F 49% 30.21 in 10.0 mi WNW 21.9 mph 27.6 mph N/A   Overcast
7:14 PM 44.6 °F 37.4 °F 26.6 °F 49% 30.22 in 10.0 mi West 16.1 mph 25.3 mph N/A   Overcast
7:35 PM 44.6 °F 37.4 °F 26.6 °F 49% 30.22 in 10.0 mi WNW 16.1 mph 25.3 mph N/A   Overcast
7:55 PM 44.6 °F 37.8 °F 28.4 °F 53% 30.23 in 10.0 mi West 15.0 mph 23.0 mph N/A   Overcast
9:15 PM 44.6 °F 37.2 °F 26.6 °F 49% 30.23 in 10.0 mi West 17.3 mph 21.9 mph N/A   Overcast
9:35 PM 44.6 °F 37.2 °F 26.6 °F 49% 30.23 in 10.0 mi West 17.3 mph 24.2 mph N/A   Overcast
9:55 PM 44.6 °F 36.9 °F 26.6 °F 49% 30.24 in 10.0 mi West 18.4 mph - N/A   Overcast
10:15 PM 44.6 °F 36.6 °F 28.4 °F 53% 30.24 in 10.0 mi WNW 19.6 mph 23.0 mph N/A   Overcast
10:34 PM 44.6 °F 37.4 °F 26.6 °F 49% 30.24 in 10.0 mi West 16.1 mph - N/A   Overcast
10:55 PM 44.6 °F 36.6 °F 26.6 °F 49% 30.24 in 10.0 mi West 19.6 mph 23.0 mph N/A   Overcast
11:15 PM 42.8 °F 34.5 °F 26.6 °F 53% 30.24 in 10.0 mi WNW 18.4 mph 29.9 mph N/A   Mostly Cloudy
11:35 PM 41.0 °F 33.9 °F 26.6 °F 57% 30.24 in 10.0 mi WNW 12.7 mph - N/A   Scattered Clouds
11:55 PM 41.0 °F 33.9 °F 26.6 °F 57% 30.24 in 10.0 mi WNW 12.7 mph - N/A   Mostly Cloudy